{"data":{"norad_id":69918,"intl_designator":"2026-156BB","name":"GRUS-3B","alt_names":[],"object_type":"PAYLOAD","status":"ACTIVE","operator":null,"country":"JPN","launch_date":"2026-07-07","launch_site_code":"AFWTR","launch_vehicle":null,"mission":null,"orbit_class":"UNKNOWN","rcs_meters":null,"size_class":null,"mass_kg":null,"dimensions":null,"purposes":[],"wikipedia_slug":null,"has_3d_model":false,"image_url":null,"decayed_at":null,"tle_current":{"epoch":"2026-09-20T01:32:09.853152Z","epoch_age_seconds":55344,"freshness":"FRESH","line1":"1 69918U 26156BB  26263.06400293  .00000747  00000+0  79476-4 0  9990","line2":"2 69918  97.7467 162.2818 0004778 266.4972  93.5700 14.91833222 11141","mean_motion":14.91833222,"eccentricity":0.0004778,"inclination_deg":97.7467,"raan_deg":162.2818,"arg_perigee_deg":266.4972,"mean_anomaly_deg":93.57,"bstar":7.9476e-5,"rev_number":1114,"period_min":96.52553507754,"perigee_km":588.88908034889,"apogee_km":595.54995303624,"semimajor_km":6970.3565166926,"source":"CELESTRAK","updated_at":"2026-09-20T09:00:25.181490Z"}}}